Weather History for KDSV - January, 2013

Change the Weather History Date:

Thursday, January 24, 2013

  Actual Average Record
Temperature  
Mean Temperature 8 °F -  
Max Temperature 15 °F 36 °F 63 °F (1967)
Min Temperature 0 °F 18 °F -12 °F (1963)
Degree Days  
Heating Degree Days 57    
Moisture  
Dew Point 2 °F    
Average Humidity 75    
Maximum Humidity 85    
Minimum Humidity 59    
Precipitation  
Precipitation 0.00 in - - ()
Sea Level Pressure  
Sea Level Pressure 30.36 in    
Wind  
Wind Speed 6 mph (SW)    
Max Wind Speed 17 mph    
Max Gust Speed 23 mph    
Visibility 8 miles    
Events Snow    
Averages and records for this station are not official NWS values.
T = Trace of Precipitation, MM = Missing Value Source: NWS Daily Summary

Daily Weather History Graph

Daily Weather History Graph

Search for Another Location

Airport or City:

Trip Planner

Search our weather history database for the weather conditions in past years. The results will help you decide how hot, cold, wet, or windy it might be!

Date:

Astronomy

Jan. 24, 2013 Rise Set
Actual Time 7:32 AM EST 5:14 PM EST
Civil Twilight 7:01 AM EST 5:44 PM EST
Nautical Twilight 6:27 AM EST 6:19 PM EST
Astronomical Twilight 5:54 AM EST 6:52 PM EST
Moon 3:14 PM EST (1/24) 5:29 AM EST (1/24)
Length of Visible Light 10h 43m
Length of Day
9h 42m
Waxing Gibbous, 94% of the Moon is Illuminated
Jan 24
Waxing Gibbous
Jan 26
Full
Feb 3
Last Quarter
Feb 10
New
Feb 17
First Quarter

Hourly Weather History & Observations

Time (EST) Temp. Windchill Dew Point Humidity Pressure Visibility Wind Dir Wind Speed Gust Speed Precip Events Conditions
12:32 AM 3.2 °F -10.3 °F -0.4 °F 85% 30.08 in 6.0 mi SE 8.1 mph - 0.00 in Snow Light Snow
12:47 AM 5.0 °F -6.9 °F -0.4 °F 78% 30.07 in 7.0 mi SSE 6.9 mph - 0.00 in Snow Light Snow
12:54 AM 5.0 °F -8.1 °F -0.9 °F 76% 30.15 in 7.0 mi SSE 8.1 mph - 0.00 in Snow Light Snow
1:54 AM 5.0 °F -9.1 °F -0.0 °F 80% 30.14 in 10.0 mi SE 9.2 mph - 0.00 in   Clear
2:54 AM 5.0 °F -5.6 °F -0.9 °F 76% 30.15 in 10.0 mi SSE 5.8 mph - N/A   Clear
3:54 AM 3.0 °F -8.0 °F -2.0 °F 80% 30.17 in 10.0 mi SSE 5.8 mph - N/A   Scattered Clouds
4:54 AM 5.0 °F - -0.9 °F 76% 30.21 in 10.0 mi Calm Calm - N/A   Overcast
5:54 AM 5.0 °F - -0.0 °F 80% 30.24 in 6.0 mi Calm Calm - 0.00 in Snow Light Snow
6:54 AM 6.1 °F -0.9 °F 1.0 °F 80% 30.27 in 4.0 mi SSE 3.5 mph - 0.00 in Snow Light Snow
7:09 AM 5.0 °F -2.1 °F 1.4 °F 85% 30.21 in 6.0 mi SSE 3.5 mph - 0.00 in Snow Light Snow
7:54 AM 5.0 °F -2.1 °F 1.0 °F 84% 30.31 in 6.0 mi SSE 3.5 mph - 0.00 in   Overcast
8:54 AM 6.1 °F -2.8 °F 1.0 °F 80% 30.35 in 10.0 mi SSE 4.6 mph - N/A   Overcast
9:10 AM 8.6 °F - 1.4 °F 73% 30.28 in 10.0 mi Calm Calm - N/A   Overcast
9:44 AM 8.6 °F - 3.2 °F 79% 30.29 in 1.8 mi Calm Calm - 0.00 in Snow Light Snow
9:54 AM 10.0 °F - 5.0 °F 80% 30.38 in 1.5 mi Calm Calm - 0.00 in Snow Light Snow
10:15 AM 12.2 °F - 6.8 °F 79% 30.32 in 3.0 mi Calm Calm - 0.00 in Snow Light Snow
10:32 AM 12.2 °F - 6.8 °F 79% 30.33 in 2.5 mi Calm Calm - 0.00 in Snow Light Snow
10:40 AM 12.2 °F 6.1 °F 6.8 °F 79% 30.33 in 4.0 mi NW 3.5 mph - 0.00 in Snow Light Snow
10:54 AM 12.9 °F 3.8 °F 7.0 °F 77% 30.41 in 7.0 mi NNW 5.8 mph - 0.00 in Snow Light Snow
11:25 AM 14.0 °F 2.9 °F 8.6 °F 79% 30.35 in 2.5 mi NW 8.1 mph - 0.00 in Snow Light Snow
11:47 AM 14.0 °F -1.4 °F 8.6 °F 79% 30.36 in 3.0 mi NW 15.0 mph - 0.00 in Snow Light Snow
11:54 AM 15.1 °F -0.1 °F 8.1 °F 74% 30.44 in 4.0 mi NW 15.0 mph - 0.00 in Snow Light Snow
12:43 PM 15.8 °F -0.2 °F 5.0 °F 62% 30.38 in 10.0 mi NNW 17.3 mph 23.0 mph 0.00 in   Overcast
12:54 PM 14.0 °F -1.4 °F 3.9 °F 64% 30.45 in 10.0 mi NW 15.0 mph - 0.00 in   Overcast
1:54 PM 15.1 °F 0.5 °F 3.9 °F 61% 30.45 in 10.0 mi NNW 13.8 mph - N/A   Overcast
2:54 PM 14.0 °F -0.8 °F 3.9 °F 64% 30.48 in 10.0 mi NNW 13.8 mph - 0.00 in   Overcast
3:54 PM 12.9 °F -1.6 °F 1.0 °F 59% 30.51 in 10.0 mi NNW 12.7 mph - N/A   Partly Cloudy
4:54 PM 12.0 °F -0.4 °F -0.0 °F 59% 30.53 in 10.0 mi WNW 9.2 mph - N/A   Partly Cloudy
5:54 PM 10.9 °F 2.9 °F -0.0 °F 61% 30.56 in 10.0 mi WNW 4.6 mph - N/A   Overcast
6:54 PM 6.1 °F - -0.9 °F 73% 30.57 in 10.0 mi Calm Calm - N/A   Clear
7:54 PM 5.0 °F - -0.9 °F 76% 30.58 in 10.0 mi Calm Calm - N/A   Clear
8:54 PM 1.9 °F - -2.0 °F 83% 30.57 in 10.0 mi Calm Calm - N/A   Clear
9:54 PM 1.9 °F -5.6 °F -2.9 °F 80% 30.57 in 10.0 mi South 3.5 mph - N/A   Clear
10:54 PM 1.0 °F -8.7 °F -4.0 °F 79% 30.56 in 10.0 mi South 4.6 mph - N/A   Clear
11:54 PM -0.0 °F -7.9 °F -5.1 °F 79% 30.56 in 10.0 mi SSE 3.5 mph - N/A   Clear